[[{"header":{"parameterUnit":"m.s-1","parameterCategory":1,"la1":30.2991,"la2":30.254,"lo1":-89.0895,"lo2":-89.0444,"dy":0.0017,"dx":0.0017,"nx":28,"ny":28,"refTime":"2023-09-30T03:00:00:Z","depth":0,"parameterNumber":2,"parameterNumberName":"U-component_of_WINDS"},"data":[0,0,0,0,0,0,0,0,0,0,0,0,0,0,0,0,0,0,0,0,0,0,0,0,0,0,0,0,0,0,0,0,0,0,0,0,0,0,0,0,0,0,0,0,0,0,0,0,0,0,0,0,0,0,0,0,0,0,-2.4308,-2.4308,0,-2.4397,-2.4398,-2.4399,-2.4341,-2.4338,-2.4336,-2.4333,-2.4427,-2.4431,-2.4436,0,0,0,0,0,0,0,0,0,0,0,0,0,-2.4088,-2.4093,-2.4307,-2.4309,-2.431,-2.4397,-2.4398,-2.4399,-2.4341,-2.4338,-2.4335,-2.4332,-2.4425,-2.4431,-2.4437,0,0,0,0,0,0,0,0,0,0,0,0,0,-2.4181,-2.4094,-2.4307,-2.4291,-2.4291,-2.4396,-2.4398,-2.4399,-2.4342,-2.4338,-2.4334,-2.433,-2.4423,-2.443,-2.4438,-2.4565,0,0,-2.4461,-2.4464,0,0,0,0,0,0,0,0,-2.4176,-2.4189,-2.4293,-2.4293,-2.4292,-2.4354,-2.4355,-2.4455,-2.4343,-2.4323,-2.4333,-2.4328,-2.4406,-2.4414,-2.444,-2.4569,-2.4573,-2.4461,-2.4466,-2.4469,-2.4471,0,0,0,0,0,0,0,-2.417,-2.4185,-2.4343,-2.4294,-2.4294,-2.428,-2.4289,-2.4374,-2.4386,-2.4324,-2.432,-2.4331,-2.4405,-2.4433,-2.4442,-2.4574,-2.4461,-2.4468,-2.4472,-2.4475,-2.4812,-2.4817,0,0,0,0,0,0,-2.4164,-2.418,-2.434,-2.4345,-2.4223,-2.4287,-2.4297,-2.4338,-2.4385,-2.4388,-2.4335,-2.4328,-2.4422,-2.4433,-2.4445,-2.4597,-2.4469,-2.4476,-2.448,-2.4808,-2.4813,-2.4818,0,0,0,0,0,0,-2.416,-2.4179,-2.4336,-2.4262,-2.4281,-2.4295,-2.4342,-2.4342,-2.437,-2.4393,-2.4395,-2.4361,-2.4419,-2.4434,-2.4535,-2.46,-2.4479,-2.4486,-2.4803,-2.481,-2.4816,-2.4903,0,0,0,0,0,0,-2.4154,-2.4178,-2.4226,-2.4263,-2.4285,-2.4425,-2.4346,-2.4347,-2.4383,-2.4375,-2.4418,-2.4421,-2.4417,-2.4524,-2.4543,-2.4608,-2.4492,-2.4797,-2.4806,-2.4814,-2.4894,-2.4911,-2.4926,0,0,0,0,0,-2.4146,-2.4247,-2.4229,-2.4248,-2.4345,-2.4429,-2.4441,-2.4434,-2.4388,-2.4437,-2.4451,-2.442,-2.4589,-2.4535,-2.4555,-2.4624,-2.4793,-2.4803,-2.4813,-2.4887,-2.4908,-2.4926,0,0,0,0,0,0,-2.4218,-2.4252,-2.4232,-2.4348,-2.4386,-2.4419,-2.448,-2.4457,-2.4509,-2.45,-2.449,-2.45,-2.4606,-2.4624,-2.4563,-2.4749,-2.4684,-2.4699,-2.4733,-2.4754,-2.4769,-2.4763,-2.4498,0,0,0,0,0,-2.4247,-2.4311,-2.4338,-2.4438,-2.4458,-2.4466,-2.4502,-2.4493,-2.4532,-2.4548,-2.457,-2.461,-2.4672,-2.4714,-2.4772,-2.4896,-2.4905,-2.4953,-2.4969,-2.4982,-2.4995,-2.5063,-2.5085,-2.4851,-2.4851,-2.4851,0,0,-2.4308,-2.4335,-2.4376,-2.4453,-2.4481,-2.4549,-2.448,-2.4554,-2.4605,-2.456,-2.4657,-2.4674,-2.4718,-2.4831,-2.4882,-2.485,-2.5062,-2.4995,-2.5005,-2.5011,-2.5076,-2.5098,-2.5117,-2.4858,-2.4857,-2.4856,0,0,-2.4454,-2.4481,-2.4567,-2.4597,-2.464,-2.4645,-2.4666,-2.4703,-2.4712,-2.4809,-2.4777,-2.4837,-2.4944,-2.4977,-2.5007,-2.5166,-2.5139,-2.5185,-2.527,-2.5336,-2.5354,-2.537,-2.5428,-2.5449,-2.5198,-2.5198,-2.5198,0,-2.4525,-2.4625,-2.4614,-2.4691,-2.4726,-2.4688,-2.4776,-2.4805,-2.4866,-2.4892,-2.4854,-2.4988,-2.5015,-2.5136,-2.5174,-2.52,-2.5224,-2.5181,-2.5352,-2.5368,-2.5384,-2.5438,-2.546,-2.5203,-2.5203,-2.5202,-2.5202,0,-2.4711,-2.4781,-2.4845,-2.4905,-2.4946,-2.5029,-2.503,-2.5074,-2.5062,-2.507,-2.517,-2.52,-2.5264,-2.5292,-2.5281,-2.5411,-2.539,-2.5353,-2.5288,-2.5411,-2.5463,-2.5484,-2.5211,-2.5209,-2.5207,-2.5206,0,0,-2.4906,-2.4957,-2.4982,-2.5008,-2.5053,-2.5107,-2.5188,-2.525,-2.5288,-2.5331,-2.5399,-2.549,-2.5456,-2.5491,-2.5483,-2.5541,-2.5665,-2.5496,-2.5497,-2.5528,-2.5812,-2.5841,-2.5865,-2.5647,-2.5651,-2.5654,-2.5809,0,-2.5056,-2.5195,-2.5188,-2.5319,-2.5384,-2.5348,-2.5418,-2.5454,-2.5464,-2.5521,-2.5532,-2.5598,-2.5547,-2.5568,-2.5623,-2.5638,-2.5722,-2.5627,-2.5711,-2.5714,-2.5703,-2.5892,-2.5923,-2.6068,-2.5829,-2.5832,-2.5835,0,-2.5249,-2.5299,-2.5437,-2.5472,-2.5499,-2.5562,-2.5619,-2.5673,-2.5713,-2.5716,-2.5755,-2.5737,-2.5819,-2.5751,-2.5864,-2.5799,-2.5833,-2.5845,-2.5851,-2.586,-2.5783,-2.5907,-2.6113,-2.6136,-2.5866,-2.5863,-2.5861,0,-2.5379,-2.548,-2.5576,-2.5599,-2.5643,-2.5688,-2.5709,-2.5744,-2.5782,-2.5831,-2.5856,-2.5914,-2.5947,-2.5993,-2.5992,-2.5942,-2.6107,-2.6038,-2.6113,-2.6113,-2.6151,-2.6149,-2.6367,-2.6171,-2.617,-2.617,-2.6169,0,-2.5548,-2.5634,-2.5635,-2.5694,-2.5789,-2.5779,-2.5874,-2.589,-2.5922,-2.5984,-2.5956,-2.6015,-2.6009,-2.6068,-2.6068,-2.6162,-2.6177,-2.6183,-2.6182,-2.6186,-2.6186,-2.6209,-2.62,-2.6176,-2.6174,-2.6173,-2.6172,0,-2.571,-2.5714,-2.5816,-2.5848,-2.5858,-2.5928,-2.5956,-2.6012,-2.6019,-2.6098,-2.6116,-2.6128,-2.6196,-2.6199,-2.6278,-2.6278,-2.6393,-2.6381,-2.638,-2.6378,-2.6453,-2.6447,-2.6695,-2.6728,-2.6509,-2.6512,-2.6513,0,-2.5819,-2.5884,-2.5923,-2.5962,-2.5985,-2.6049,-2.6087,-2.608,-2.6121,-2.6171,-2.6222,-2.6287,-2.6339,-2.6451,-2.6467,-2.6528,-2.6517,-2.66,-2.6526,-2.6528,-2.652,-2.6516,-2.6523,-2.6615,-2.6617,-2.6619,-2.6621,0,-2.6011,-2.6009,-2.6065,-2.6122,-2.6168,-2.6213,-2.6254,-2.6288,-2.6285,-2.6333,-2.6403,-2.6443,-2.6523,-2.659,-2.6648,-2.667,-2.6646,-2.6643,-2.6664,-2.667,-2.6667,-2.6671,-2.6421,-2.6638,-2.6636,-2.6635,-2.6634,-2.6634,-2.615,-2.6207,-2.6243,-2.6307,-2.6337,-2.6376,-2.643,-2.6444,-2.6502,-2.6566,-2.6558,-2.6636,-2.6674,-2.675,-2.6776,-2.6837,-2.6809,-2.6839,-2.6847,-2.6855,-2.6863,-2.6657,-2.6848,-2.6847,-2.6847,-2.6846,-2.6846,0,-2.6342,-2.6363,-2.6421,-2.648,-2.653,-2.6501,-2.6545,-2.659,-2.6658,-2.6695,-2.6747,-2.6827,-2.6891,-2.6912,-2.6974,-2.7019,-2.7009,-2.7035,-2.7033,-2.7038,-2.6884,-2.6861,-2.7042,-2.7042,-2.7042,-2.7042,-2.7042,-2.7042,-2.6447,-2.6542,-2.6545,-2.6654,-2.6674,-2.675,-2.6778,-2.6814,-2.6844,-2.6934,-2.6987,-2.6999,-2.703,-2.7094,-2.7152,-2.7156,-2.7181,-2.7213,-2.7213,-2.7069,-2.7049,-2.703,-2.7008,-2.7218,-2.7218,-2.7362,-2.7363,-2.7364]},{"header":{"parameterUnit":"m.s-1","parameterCategory":1,"la1":30.2991,"la2":30.254,"lo1":-89.0895,"lo2":-89.0444,"dy":0.0017,"dx":0.0017,"nx":28,"ny":28,"refTime":"2023-09-30T03:00:00:Z","depth":0,"parameterNumber":3,"parameterNumberName":"V-component_of_WINDS"},"data":[0,0,0,0,0,0,0,0,0,0,0,0,0,0,0,0,0,0,0,0,0,0,0,0,0,0,0,0,0,0,0,0,0,0,0,0,0,0,0,0,0,0,0,0,0,0,0,0,0,0,0,0,0,0,0,0,0,0,-2.8907,-2.8907,0,-2.8918,-2.8918,-2.8918,-2.8882,-2.8881,-2.888,-2.8879,-2.889,-2.8891,-2.8892,0,0,0,0,0,0,0,0,0,0,0,0,0,-2.8851,-2.8853,-2.8907,-2.8907,-2.8907,-2.8918,-2.8918,-2.8918,-2.8882,-2.8881,-2.888,-2.8879,-2.8889,-2.8891,-2.8893,0,0,0,0,0,0,0,0,0,0,0,0,0,-2.887,-2.8853,-2.8907,-2.889,-2.8889,-2.8918,-2.8918,-2.8918,-2.8883,-2.8881,-2.8879,-2.8878,-2.8889,-2.8891,-2.8893,-2.8938,0,0,-2.8899,-2.89,0,0,0,0,0,0,0,0,-2.8869,-2.8872,-2.8893,-2.8892,-2.889,-2.8897,-2.8903,-2.8925,-2.8883,-2.8885,-2.8879,-2.8877,-2.8894,-2.8895,-2.8901,-2.8938,-2.8939,-2.8899,-2.89,-2.8901,-2.8901,0,0,0,0,0,0,0,-2.8868,-2.8872,-2.8911,-2.8893,-2.8891,-2.8882,-2.8883,-2.8907,-2.8898,-2.8885,-2.8882,-2.8884,-2.8892,-2.8899,-2.8901,-2.8939,-2.8899,-2.8901,-2.8902,-2.8903,-2.9012,-2.9014,0,0,0,0,0,0,-2.8869,-2.8871,-2.8911,-2.8911,-2.8876,-2.8884,-2.8885,-2.8896,-2.8898,-2.8897,-2.8886,-2.8882,-2.8896,-2.8898,-2.8901,-2.8952,-2.8901,-2.8903,-2.8904,-2.901,-2.9012,-2.9014,0,0,0,0,0,0,-2.8868,-2.8873,-2.891,-2.889,-2.8895,-2.8887,-2.89,-2.8898,-2.8904,-2.8899,-2.8897,-2.8894,-2.8895,-2.8898,-2.8928,-2.8952,-2.8904,-2.8905,-2.9008,-2.9011,-2.9013,-2.9057,0,0,0,0,0,0,-2.8867,-2.8873,-2.8891,-2.8891,-2.8896,-2.8938,-2.8901,-2.8899,-2.8908,-2.8904,-2.8906,-2.8905,-2.8894,-2.8926,-2.893,-2.8954,-2.8907,-2.9006,-2.9009,-2.9012,-2.9053,-2.906,-2.9067,0,0,0,0,0,-2.8865,-2.8902,-2.8892,-2.8897,-2.8918,-2.894,-2.8942,-2.893,-2.891,-2.8927,-2.8923,-2.8904,-2.8949,-2.8929,-2.8934,-2.8959,-2.9004,-2.9008,-2.9012,-2.905,-2.9059,-2.9066,0,0,0,0,0,0,-2.8905,-2.8902,-2.889,-2.8929,-2.8935,-2.8934,-2.8955,-2.894,-2.8951,-2.8947,-2.8931,-2.8932,-2.8965,-2.8965,-2.8943,-2.9001,-2.8973,-2.8978,-2.9,-2.9009,-2.9015,-2.9014,-2.8909,0,0,0,0,0,-2.8918,-2.8937,-2.8934,-2.8968,-2.8972,-2.8963,-2.8972,-2.8962,-2.8967,-2.8969,-2.8968,-2.8973,-2.8988,-2.8999,-2.9012,-2.9053,-2.9052,-2.9072,-2.9079,-2.9085,-2.9089,-2.9109,-2.9117,-2.9027,-2.9027,-2.9027,0,0,-2.8946,-2.8947,-2.896,-2.8976,-2.898,-2.8998,-2.8965,-2.8987,-2.9001,-2.8973,-2.9001,-2.9,-2.9005,-2.904,-2.9056,-2.9041,-2.9114,-2.909,-2.9094,-2.9095,-2.9114,-2.9122,-2.913,-2.903,-2.9029,-2.9029,0,0,-2.9006,-2.9009,-2.9038,-2.9042,-2.9047,-2.904,-2.9047,-2.9048,-2.9046,-2.9074,-2.9053,-2.9069,-2.9096,-2.9099,-2.9105,-2.9165,-2.9148,-2.917,-2.9205,-2.9225,-2.9232,-2.9238,-2.9259,-2.9266,-2.9175,-2.9175,-2.9175,0,-2.904,-2.9068,-2.9054,-2.9077,-2.9084,-2.906,-2.9088,-2.9092,-2.9101,-2.9107,-2.9091,-2.9122,-2.9124,-2.9159,-2.9174,-2.918,-2.9186,-2.9169,-2.9232,-2.9238,-2.9244,-2.9263,-2.9271,-2.9177,-2.9177,-2.9177,-2.9176,0,-2.9108,-2.9128,-2.9151,-2.916,-2.917,-2.9195,-2.9184,-2.9196,-2.9184,-2.918,-2.9208,-2.9209,-2.9221,-2.9229,-2.9219,-2.9263,-2.9253,-2.9235,-2.9206,-2.9255,-2.9273,-2.928,-2.9181,-2.918,-2.9179,-2.9179,0,0,-2.9195,-2.9195,-2.9203,-2.9206,-2.921,-2.9225,-2.9248,-2.9261,-2.927,-2.9277,-2.9296,-2.9319,-2.9301,-2.9308,-2.9297,-2.9315,-2.936,-2.9294,-2.9294,-2.9305,-2.9407,-2.942,-2.9429,-2.9349,-2.9351,-2.9352,-2.9406,0,-2.9253,-2.9293,-2.9281,-2.9321,-2.9338,-2.9315,-2.9335,-2.9339,-2.9335,-2.9348,-2.9344,-2.9359,-2.9336,-2.934,-2.9356,-2.9352,-2.9381,-2.9348,-2.9366,-2.9366,-2.9364,-2.9438,-2.9452,-2.9504,-2.9413,-2.9415,-2.9415,0,-2.9326,-2.9335,-2.9377,-2.9376,-2.9383,-2.9402,-2.9411,-2.9425,-2.9428,-2.9424,-2.943,-2.9416,-2.9438,-2.941,-2.944,-2.9417,-2.9424,-2.9423,-2.9424,-2.9425,-2.9393,-2.944,-2.952,-2.9527,-2.9426,-2.9425,-2.9425,0,-2.9383,-2.9406,-2.9434,-2.9437,-2.9437,-2.9451,-2.9451,-2.9453,-2.9461,-2.9469,-2.9474,-2.9485,-2.949,-2.9499,-2.9487,-2.9468,-2.9519,-2.9489,-2.9515,-2.9515,-2.9526,-2.9525,-2.9607,-2.9532,-2.9532,-2.9532,-2.9532,0,-2.9448,-2.9474,-2.9459,-2.9476,-2.9504,-2.949,-2.9518,-2.9516,-2.9517,-2.9533,-2.9513,-2.9528,-2.9513,-2.9526,-2.9517,-2.9543,-2.9546,-2.9542,-2.9539,-2.9543,-2.9544,-2.9547,-2.9542,-2.9534,-2.9533,-2.9533,-2.9533,0,-2.9516,-2.9507,-2.9535,-2.9533,-2.9532,-2.9553,-2.9551,-2.9566,-2.956,-2.958,-2.9584,-2.9575,-2.9589,-2.9579,-2.9593,-2.9587,-2.962,-2.9613,-2.9619,-2.9616,-2.9642,-2.9639,-2.9728,-2.9738,-2.9658,-2.9658,-2.9659,0,-2.9558,-2.9578,-2.9577,-2.9586,-2.9587,-2.9602,-2.961,-2.9595,-2.9604,-2.9609,-2.9623,-2.9636,-2.9645,-2.9669,-2.9664,-2.9675,-2.9667,-2.9697,-2.9668,-2.9671,-2.9666,-2.9664,-2.9665,-2.9703,-2.9704,-2.9704,-2.9705,0,-2.9633,-2.9627,-2.9639,-2.9649,-2.9658,-2.9665,-2.9671,-2.9679,-2.9664,-2.9675,-2.9689,-2.9697,-2.9711,-2.9724,-2.9732,-2.9732,-2.9716,-2.9714,-2.972,-2.9724,-2.9726,-2.9724,-2.9634,-2.9712,-2.9711,-2.9711,-2.9711,-2.971,-2.9688,-2.9704,-2.9705,-2.9718,-2.9721,-2.9726,-2.974,-2.9735,-2.9747,-2.9758,-2.9749,-2.9766,-2.9767,-2.9777,-2.9779,-2.9791,-2.9779,-2.9788,-2.979,-2.9793,-2.9796,-2.9725,-2.9793,-2.9793,-2.9793,-2.9793,-2.9792,0,-2.9761,-2.976,-2.9773,-2.9781,-2.9791,-2.9775,-2.9779,-2.9789,-2.9804,-2.9807,-2.9816,-2.9832,-2.9844,-2.9839,-2.9849,-2.986,-2.9853,-2.9863,-2.9862,-2.9862,-2.9807,-2.98,-2.9869,-2.9869,-2.9869,-2.9869,-2.9869,-2.9869,-2.98,-2.9825,-2.9819,-2.9845,-2.9844,-2.986,-2.9864,-2.9868,-2.9871,-2.9889,-2.9899,-2.9895,-2.9895,-2.9905,-2.9914,-2.9913,-2.9917,-2.993,-2.9925,-2.9874,-2.9866,-2.9859,-2.9852,-2.9931,-2.9931,-2.9979,-2.9979,-2.998]}]]